| time (UTC) | temp C | wind direction | speed KPH | gust KPH | rain 1hr cm | rain 24hr cm | rain mn cm | humidity % | barometer mb |
| 20260508025019 | 12 | 338 | 6.4 | 11.3 | 0.00 | 0.10 | 0.00 | 80 | 1015.9 |
| 20260508024018 | 12 | 346 | 6.4 | 9.7 | 0.00 | 0.10 | 0.00 | 80 | 1015.9 |
| 20260508023019 | 12 | 325 | 6.4 | 11.3 | 0.00 | 0.10 | 0.00 | 81 | 1016.0 |
| 20260508022018 | 12 | 332 | 6.4 | 11.3 | 0.00 | 0.10 | 0.00 | 81 | 1016.0 |
| 20260508021019 | 12 | 342 | 4.8 | 9.7 | 0.00 | 0.10 | 0.00 | 79 | 1016.0 |
| 20260508020019 | 12 | 322 | 6.4 | 11.3 | 0.00 | 0.10 | 0.00 | 79 | 1016.1 |
| 20260508015018 | 12 | 327 | 6.4 | 12.9 | 0.00 | 0.10 | 0.00 | 81 | 1015.9 |
| 20260508014019 | 12 | 309 | 4.8 | 9.7 | 0.00 | 0.10 | 0.00 | 81 | 1015.9 |
| 20260508013019 | 12 | 325 | 6.4 | 9.7 | 0.00 | 0.10 | 0.00 | 80 | 1016.0 |
| 20260508012019 | 12 | 336 | 4.8 | 9.7 | 0.00 | 0.10 | 0.00 | 80 | 1016.1 |
| 20260508011019 | 12 | 328 | 4.8 | 9.7 | 0.00 | 0.10 | 0.00 | 80 | 1016.2 |
| 20260508010019 | 12 | 306 | 4.8 | 8.0 | 0.00 | 0.10 | 0.00 | 80 | 1016.3 |
| 20260508005019 | 12 | 343 | 6.4 | 11.3 | 0.00 | 0.10 | 0.00 | 80 | 1016.3 |
| 20260508004018 | 12 | 330 | 6.4 | 9.7 | 0.00 | 0.10 | 0.00 | 80 | 1016.4 |
| 20260508003019 | 12 | 269 | 3.2 | 6.4 | 0.00 | 0.10 | 0.00 | 80 | 1016.4 |
| 20260508002019 | 12 | 322 | 6.4 | 9.7 | 0.00 | 0.10 | 0.00 | 80 | 1016.5 |
| 20260508001018 | 12 | 331 | 6.4 | 11.3 | 0.00 | 0.10 | 0.00 | 79 | 1016.6 |
| 20260508000019 | 12 | 322 | 6.4 | 14.5 | 0.00 | 0.10 | 0.00 | 80 | 1016.7 |
| 20260507235018 | 12 | 294 | 6.4 | 12.9 | 0.00 | 0.10 | 0.00 | 79 | 1016.7 |
| 20260507234019 | 12 | 320 | 8.0 | 14.5 | 0.00 | 0.10 | 0.00 | 79 | 1016.8 |
| 20260507233019 | 12 | 333 | 6.4 | 12.9 | 0.00 | 0.10 | 0.00 | 79 | 1016.8 |
| 20260507232019 | 12 | 306 | 6.4 | 11.3 | 0.00 | 0.10 | 0.00 | 79 | 1016.8 |
| 20260507231019 | 12 | 326 | 6.4 | 11.3 | 0.00 | 0.10 | 0.00 | 79 | 1016.9 |
| 20260507230018 | 12 | 312 | 6.4 | 14.5 | 0.00 | 0.10 | 0.00 | 78 | 1016.9 |
| 20260507225019 | 12 | 329 | 6.4 | 11.3 | 0.00 | 0.10 | 0.00 | 78 | 1016.9 |
| 20260507224018 | 13 | 327 | 8.0 | 12.9 | 0.00 | 0.10 | 0.00 | 78 | 1016.9 |
| 20260507223019 | 13 | 337 | 8.0 | 12.9 | 0.00 | 0.10 | 0.00 | 77 | 1016.9 |
| 20260507222019 | 13 | 316 | 8.0 | 12.9 | 0.00 | 0.10 | 0.00 | 78 | 1017.1 |
| 20260507221019 | 13 | 315 | 4.8 | 11.3 | 0.00 | 0.10 | 0.00 | 77 | 1017.1 |
| 20260507220019 | 13 | 319 | 6.4 | 11.3 | 0.00 | 0.10 | 0.00 | 77 | 1017.2 |
| 20260507215019 | 13 | 325 | 6.4 | 11.3 | 0.00 | 0.10 | 0.00 | 76 | 1017.2 |
| 20260507214019 | 13 | 344 | 6.4 | 12.9 | 0.00 | 0.10 | 0.00 | 76 | 1017.2 |
| 20260507213019 | 13 | 295 | 6.4 | 12.9 | 0.00 | 0.10 | 0.00 | 76 | 1017.2 |
| 20260507212019 | 13 | 345 | 8.0 | 14.5 | 0.00 | 0.10 | 0.00 | 76 | 1017.2 |
| 20260507211018 | 13 | 346 | 6.4 | 11.3 | 0.00 | 0.10 | 0.00 | 75 | 1017.2 |
| 20260507210019 | 13 | 347 | 8.0 | 14.5 | 0.00 | 0.10 | 0.00 | 76 | 1017.3 |
| 20260507205019 | 13 | 326 | 8.0 | 14.5 | 0.00 | 0.10 | 0.10 | 76 | 1017.3 |
| 20260507204019 | 13 | 328 | 4.8 | 11.3 | 0.00 | 0.10 | 0.10 | 75 | 1017.2 |
| 20260507203018 | 13 | 336 | 8.0 | 14.5 | 0.00 | 0.10 | 0.10 | 75 | 1017.2 |
| 20260507202019 | 13 | 330 | 6.4 | 11.3 | 0.00 | 0.10 | 0.10 | 75 | 1017.3 |
| 20260507201019 | 14 | 326 | 6.4 | 11.3 | 0.00 | 0.10 | 0.10 | 75 | 1017.3 |
| 20260507200019 | 14 | 341 | 8.0 | 11.3 | 0.00 | 0.10 | 0.10 | 75 | 1017.3 |
| 20260507195019 | 14 | 344 | 6.4 | 12.9 | 0.00 | 0.10 | 0.10 | 74 | 1017.2 |
| 20260507194019 | 15 | 343 | 4.8 | 11.3 | 0.00 | 0.10 | 0.10 | 73 | 1017.2 |
| 20260507193019 | 15 | 303 | 3.2 | 8.0 | 0.00 | 0.10 | 0.10 | 72 | 1017.2 |
| 20260507192019 | 15 | 318 | 4.8 | 9.7 | 0.00 | 0.10 | 0.10 | 72 | 1017.2 |
| 20260507191019 | 15 | 318 | 3.2 | 9.7 | 0.00 | 0.10 | 0.10 | 72 | 1017.1 |
| 20260507190019 | 15 | 338 | 3.2 | 6.4 | 0.00 | 0.10 | 0.10 | 72 | 1017.0 |
| 20260507185019 | 15 | 304 | 4.8 | 9.7 | 0.00 | 0.10 | 0.10 | 72 | 1016.8 |
| 20260507184019 | 15 | 342 | 4.8 | 8.0 | 0.00 | 0.10 | 0.10 | 71 | 1016.9 |
| 20260507183019 | 15 | 308 | 4.8 | 9.7 | 0.00 | 0.10 | 0.10 | 71 | 1016.9 |
| 20260507182019 | 15 | 309 | 3.2 | 6.4 | 0.00 | 0.10 | 0.10 | 71 | 1016.8 |
| 20260507181019 | 15 | 289 | 3.2 | 6.4 | 0.00 | 0.10 | 0.10 | 71 | 1016.8 |
| 20260507180019 | 16 | 310 | 1.6 | 4.8 | 0.00 | 0.10 | 0.10 | 71 | 1016.5 |
| 20260507175019 | 16 | 348 | 1.6 | 6.4 | 0.00 | 0.10 | 0.10 | 69 | 1016.6 |
| 20260507174019 | 16 | 291 | 1.6 | 3.2 | 0.00 | 0.10 | 0.10 | 69 | 1016.6 |
| 20260507173018 | 17 | 304 | 1.6 | 4.8 | 0.00 | 0.10 | 0.10 | 69 | 1016.7 |
| 20260507172019 | 17 | 302 | 1.6 | 3.2 | 0.00 | 0.10 | 0.10 | 68 | 1016.5 |
| 20260507171019 | 17 | 232 | 1.6 | 1.6 | 0.00 | 0.10 | 0.10 | 67 | 1016.7 |
| 20260507170019 | 17 | 201 | 1.6 | 3.2 | 0.00 | 0.10 | 0.10 | 67 | 1016.9 |
| 20260507165019 | 17 | 216 | 1.6 | 3.2 | 0.00 | 0.10 | 0.10 | 67 | 1016.7 |
| 20260507164019 | 17 | 239 | 0.0 | 1.6 | 0.00 | 0.10 | 0.10 | 68 | 1016.8 |
| 20260507163019 | 18 | 191 | 1.6 | 3.2 | 0.00 | 0.10 | 0.10 | 68 | 1016.6 |
| 20260507162019 | 18 | 240 | 0.0 | 0.0 | 0.00 | 0.10 | 0.10 | 68 | 1016.9 |
| 20260507161019 | 18 | 233 | 0.0 | 1.6 | 0.00 | 0.10 | 0.10 | 69 | 1016.9 |
| 20260507160019 | 20 | 200 | 0.0 | 4.8 | 0.00 | 0.10 | 0.10 | 69 | 1017.0 |
| 20260507155019 | 20 | 213 | 1.6 | 3.2 | 0.00 | 0.10 | 0.10 | 68 | 1017.0 |
| 20260507154018 | 21 | 211 | 1.6 | 4.8 | 0.00 | 0.10 | 0.10 | 68 | 1017.1 |
| 20260507153018 | 20 | 210 | 1.6 | 4.8 | 0.00 | 0.10 | 0.10 | 69 | 1017.1 |
| 20260507152019 | 21 | 213 | 1.6 | 4.8 | 0.00 | 0.10 | 0.10 | 66 | 1017.3 |
| 20260507151019 | 20 | 214 | 3.2 | 4.8 | 0.00 | 0.10 | 0.10 | 70 | 1017.2 |
| 20260507150019 | 20 | 251 | 1.6 | 1.6 | 0.00 | 0.10 | 0.10 | 70 | 1017.2 |
| 20260507145019 | 21 | 256 | 1.6 | 3.2 | 0.00 | 0.10 | 0.10 | 71 | 1016.9 |
| 20260507144019 | 21 | 228 | 1.6 | 3.2 | 0.00 | 0.10 | 0.10 | 75 | 1017.3 |
| 20260507143019 | 21 | 208 | 3.2 | 4.8 | 0.00 | 0.10 | 0.10 | 80 | 1017.4 |
| 20260507142019 | 25 | 214 | 1.6 | 3.2 | 0.00 | 0.10 | 0.10 | 68 | 1017.5 |
| 20260507141019 | 24 | 63 | 1.6 | 3.2 | 0.00 | 0.10 | 0.10 | 65 | 1017.5 |
| 20260507140019 | 21 | 257 | 1.6 | 3.2 | 0.00 | 0.10 | 0.10 | 67 | 1017.6 |
| 20260507135019 | 21 | 259 | 1.6 | 3.2 | 0.00 | 0.10 | 0.10 | 69 | 1017.5 |
| 20260507134018 | 20 | 213 | 1.6 | 4.8 | 0.00 | 0.10 | 0.10 | 72 | 1017.6 |
| 20260507133019 | 20 | 206 | 1.6 | 3.2 | 0.00 | 0.10 | 0.10 | 70 | 1017.6 |
| 20260507132019 | 21 | 275 | 1.6 | 4.8 | 0.00 | 0.10 | 0.10 | 70 | 1017.7 |
| 20260507131019 | 21 | 206 | 1.6 | 4.8 | 0.00 | 0.10 | 0.10 | 68 | 1017.7 |
| 20260507130018 | 21 | 281 | 1.6 | 3.2 | 0.00 | 0.10 | 0.10 | 70 | 1017.7 |
| 20260507125019 | 20 | 204 | 3.2 | 6.4 | 0.00 | 0.10 | 0.10 | 70 | 1017.7 |
| 20260507124019 | 20 | 205 | 1.6 | 6.4 | 0.00 | 0.10 | 0.10 | 71 | 1017.8 |
| 20260507123019 | 20 | 212 | 1.6 | 4.8 | 0.00 | 0.10 | 0.10 | 69 | 1018.0 |
| 20260507122019 | 18 | 195 | 4.8 | 9.7 | 0.00 | 0.10 | 0.10 | 73 | 1018.2 |
| 20260507121019 | 18 | 205 | 3.2 | 8.0 | 0.00 | 0.10 | 0.10 | 73 | 1018.1 |
| 20260507120019 | 17 | 196 | 3.2 | 6.4 | 0.00 | 0.10 | 0.10 | 74 | 1018.0 |
| 20260507115019 | 18 | 201 | 3.2 | 6.4 | 0.00 | 0.10 | 0.10 | 74 | 1018.1 |
| 20260507114018 | 19 | 214 | 1.6 | 6.4 | 0.00 | 0.10 | 0.10 | 70 | 1018.2 |
| 20260507113019 | 18 | 323 | 4.8 | 11.3 | 0.00 | 0.10 | 0.10 | 70 | 1018.0 |
| 20260507112019 | 18 | 322 | 4.8 | 9.7 | 0.00 | 0.10 | 0.10 | 70 | 1018.1 |
| 20260507111019 | 17 | 338 | 8.0 | 12.9 | 0.00 | 0.10 | 0.10 | 72 | 1018.4 |
| 20260507110018 | 16 | 317 | 8.0 | 14.5 | 0.03 | 0.10 | 0.10 | 72 | 1018.4 |
| 20260507105018 | 16 | 332 | 8.0 | 14.5 | 0.03 | 0.10 | 0.10 | 73 | 1018.4 |
| 20260507104018 | 15 | 301 | 9.7 | 19.3 | 0.05 | 0.10 | 0.10 | 73 | 1018.4 |
| 20260507103019 | 15 | 313 | 11.3 | 19.3 | 0.05 | 0.10 | 0.10 | 73 | 1018.4 |
| 20260507102019 | 15 | 303 | 11.3 | 16.1 | 0.05 | 0.10 | 0.10 | 73 | 1018.6 |
| 20260507101019 | 15 | 266 | 9.7 | 17.7 | 0.05 | 0.10 | 0.10 | 72 | 1018.7 |
| 20260507100019 | 15 | 272 | 6.4 | 14.5 | 0.05 | 0.08 | 0.08 | 72 | 1018.6 |
| 20260507095019 | 15 | 305 | 3.2 | 11.3 | 0.05 | 0.08 | 0.08 | 70 | 1018.6 |
| 20260507094018 | 15 | 318 | 1.6 | 9.7 | 0.03 | 0.05 | 0.05 | 70 | 1018.5 |
| 20260507093019 | 15 | 279 | 4.8 | 9.7 | 0.05 | 0.05 | 0.05 | 71 | 1018.4 |
| 20260507092018 | 15 | 309 | 11.3 | 20.9 | 0.05 | 0.05 | 0.05 | 71 | 1018.2 |
| 20260507091019 | 15 | 305 | 11.3 | 16.1 | 0.05 | 0.05 | 0.05 | 70 | 1018.1 |
| 20260507090019 | 15 | 314 | 11.3 | 19.3 | 0.03 | 0.03 | 0.03 | 69 | 1018.1 |
| 20260507085019 | 15 | 282 | 9.7 | 14.5 | 0.03 | 0.03 | 0.03 | 67 | 1018.1 |
| 20260507084019 | 15 | 285 | 8.0 | 17.7 | 0.03 | 0.03 | 0.03 | 67 | 1018.0 |
| 20260507083019 | 16 | 269 | 8.0 | 19.3 | 0.00 | 0.00 | 0.00 | 66 | 1017.8 |
| 20260507082019 | 17 | 263 | 4.8 | 11.3 | 0.00 | 0.00 | 0.00 | 63 | 1017.7 |
| 20260507081019 | 18 | 239 | 3.2 | 4.8 | 0.00 | 0.00 | 0.00 | 62 | 1017.5 |
| 20260507080019 | 20 | 200 | 3.2 | 6.4 | 0.00 | 0.00 | 0.00 | 57 | 1017.3 |
| 20260507075019 | 19 | 302 | 1.6 | 6.4 | 0.00 | 0.00 | 0.00 | 58 | 1017.1 |
| 20260507074019 | 19 | 338 | 6.4 | 12.9 | 0.00 | 0.00 | 0.00 | 58 | 1017.0 |
| 20260507073019 | 20 | 312 | 3.2 | 9.7 | 0.00 | 0.00 | 0.00 | 56 | 1016.9 |
| 20260507072018 | 19 | 351 | 4.8 | 9.7 | 0.00 | 0.00 | 0.00 | 57 | 1016.9 |
| 20260507071019 | 19 | 300 | 1.6 | 4.8 | 0.00 | 0.00 | 0.00 | 57 | 1016.9 |
| 20260507070019 | 18 | 277 | 3.2 | 4.8 | 0.00 | 0.00 | 0.00 | 60 | 1016.8 |
| 20260507065018 | 17 | 347 | 4.8 | 8.0 | 0.00 | 0.00 | 0.00 | 60 | 1016.7 |
| 20260507064019 | 17 | 332 | 1.6 | 6.4 | 0.00 | 0.00 | 0.00 | 59 | 1016.7 |
| 20260507063018 | 16 | 250 | 0.0 | 1.6 | 0.00 | 0.00 | 0.00 | 60 | 1016.7 |
| 20260507062019 | 16 | 321 | 3.2 | 4.8 | 0.00 | 0.00 | 0.00 | 61 | 1016.5 |
| 20260507061018 | 16 | 310 | 4.8 | 9.7 | 0.00 | 0.00 | 0.00 | 62 | 1016.5 |
| 20260507060018 | 16 | 305 | 4.8 | 8.0 | 0.00 | 0.00 | 0.00 | 61 | 1016.6 |
| 20260507055019 | 16 | 334 | 4.8 | 8.0 | 0.00 | 0.00 | 0.00 | 60 | 1016.7 |
| 20260507054018 | 16 | 320 | 4.8 | 8.0 | 0.00 | 0.00 | 0.00 | 60 | 1016.9 |
| 20260507053018 | 16 | 338 | 4.8 | 8.0 | 0.00 | 0.00 | 0.00 | 58 | 1016.6 |
| 20260507052019 | 16 | 323 | 4.8 | 9.7 | 0.00 | 0.00 | 0.00 | 58 | 1016.5 |
| 20260507051019 | 16 | 309 | 3.2 | 8.0 | 0.00 | 0.00 | 0.00 | 58 | 1016.4 |
| 20260507050019 | 15 | 302 | 4.8 | 8.0 | 0.00 | 0.00 | 0.00 | 59 | 1016.3 |
| 20260507045019 | 14 | 323 | 4.8 | 9.7 | 0.00 | 0.00 | 0.00 | 61 | 1016.2 |
| 20260507044019 | 13 | 298 | 6.4 | 11.3 | 0.00 | 0.00 | 0.00 | 62 | 1016.1 |
| 20260507043018 | 13 | 323 | 6.4 | 11.3 | 0.00 | 0.00 | 0.00 | 61 | 1016.0 |
| 20260507042019 | 13 | 332 | 8.0 | 14.5 | 0.00 | 0.00 | 0.00 | 62 | 1015.9 |
| 20260507041019 | 13 | 312 | 4.8 | 8.0 | 0.00 | 0.00 | 0.00 | 61 | 1015.8 |
| 20260507040019 | 13 | 320 | 8.0 | 14.5 | 0.00 | 0.00 | 0.00 | 62 | 1015.8 |
| 20260507035018 | 13 | 330 | 6.4 | 11.3 | 0.00 | 0.00 | 0.00 | 62 | 1015.7 |
| 20260507034019 | 13 | 331 | 8.0 | 14.5 | 0.00 | 0.00 | 0.00 | 62 | 1015.7 |
| 20260507033018 | 13 | 355 | 8.0 | 14.5 | 0.00 | 0.00 | 0.00 | 62 | 1015.7 |
| 20260507032019 | 12 | 354 | 8.0 | 14.5 | 0.00 | 0.00 | 0.00 | 62 | 1015.6 |
| 20260507031019 | 12 | 314 | 6.4 | 11.3 | 0.00 | 0.00 | 0.00 | 62 | 1015.6 |
| 20260507030019 | 12 | 345 | 8.0 | 14.5 | 0.00 | 0.00 | 0.00 | 62 | 1015.5 |